Location: Barrio de Canyet
(41.4665°N, 2.2381°E)
Time: 08:38:59
(UTC+00:00)

Cosmos 1954 Rocket - Pass Details

Date: 09 April 2020
Orbit: 752 x 781 km, 74.1° (Epoch: 03 June)

Event Time Altitude Azimuth Distance (km) Brightness Sun altitude
Rises 19:25:59 0° 182° (S) 3,227 7.0 -11.7°
Reaches altitude 10° 19:28:25 10° 176° (S) 2,301 6.2 -12.1°
Maximum altitude 19:33:25 48° 104° (ESE) 998 4.2 -13.0°
Drops below altitude 10° 19:38:24 10° 31° (NNE) 2,298 6.4 -13.8°
Sets 19:40:50 0° 26° (NNE) 3,224 7.2 -14.2°
